Wind_Speed
9 9 9 10 10 11 11 11 11 11 11 11 11 10 11 10 10 9 9 9 10 10 10 10 10 11 11 11 11 10 10 10 10 10 10 9 9 9 9 8 9 8 7
9 9 10 10 12 12 12 11 11 10 11 11 11 11 10 10 10 10 10 10 10 10 10 10 10 11 11 11 10 10 10 10 10 10 10 10 10 9 9 8 8 8 8
9 10 10 11 12 12 12 12 12 11 11 11 10 11 10 10 9 10 10 10 10 9 9 9 10 10 10 11 10 10 10 10 9 9 9 9 10 9 9 9 8 8 8
10 10 11 11 12 12 12 12 12 12 11 10 10 10 10 9 10 9 9 10 10 10 10 10 10 10 10 10 10 10 10 9 9 9 9 9 9 9 9 8 8 8 8
10 11 11 11 12 12 12 12 11 11 10 10 10 9 9 9 9 9 10 9 9 9 9 9 10 10 10 9 9 9 10 10 9 10 10 10 10 10 9 9 8 8 8
10 11 11 11 11 12 12 12 11 11 10 10 9 9 8 8 9 8 9 9 9 8 8 9 8 9 9 9 9 9 9 9 9 9 9 9 9 9 9 8 8 7 7
10 11 11 10 11 11 11 11 11 11 10 9 9 8 9 9 8 9 9 9 9 8 8 8 8 8 8 9 9 9 9 9 9 8 8 8 8 8 8 7 7 7 7
11 10 10 10 10 10 10 10 10 10 10 9 9 8 7 7 8 8 8 8 8 8 7 7 8 8 8 8 8 8 8 8 8 8 7 7 7 7 7 6 6 6 6
11 11 10 10 9 9 9 9 9 9 9 9 9 8 8 7 7 7 7 7 7 7 7 7 7 8 8 7 7 7 6 6 7 7 7 6 6 6 5 5 5 5 4
12 12 10 9 9 9 9 9 9 9 9 8 8 8 8 7 7 7 6 6 7 7 7 7 7 7 6 6 5 5 5 5 5 6 5 5 5 4 4 3 3 3 3
13 13 12 10 9 9 8 8 8 8 8 8 8 8 8 7 7 7 7 7 7 7 6 6 6 6 6 5 4 4 4 4 4 4 4 3 3 3 2 2 2 1 1
14 13 13 12 11 10 9 9 8 8 7 7 7 7 7 6 6 6 6 6 6 5 5 5 5 5 4 4 3 3 3 3 3 2 2 2 2 1 1 1 1 1 0
14 14 14 13 13 12 10 10 9 9 8 7 6 6 6 5 5 5 5 5 4 4 4 4 4 4 3 3 3 3 2 2 2 1 1 1 1 0 0 1 1 1 1
14 15 14 13 13 12 12 10 10 9 8 7 6 6 5 5 4 4 4 4 3 3 3 3 3 3 2 2 2 2 2 2 2 1 1 1 1 1 1 1 2 2 2
14 13 13 13 13 12 11 10 9 9 8 8 7 6 4 4 4 4 3 3 3 3 3 2 2 2 2 2 2 2 3 3 2 2 2 2 2 3 3 3 4 4 4
14 13 12 13 13 12 11 10 10 8 7 6 6 5 5 4 3 3 2 3 3 2 2 2 2 2 2 3 3 4 4 4 4 4 4 4 4 5 5 5 6 6 6
14 13 13 12 11 11 10 10 10 8 7 6 5 5 4 4 3 3 2 2 2 1 1 1 1 1 2 3 4 5 5 6 6 6 6 6 6 6 7 7 7 8 8
13 13 13 13 12 11 10 10 9 8 6 5 5 4 4 3 3 2 2 1 1 1 1 1 2 2 3 4 4 5 6 7 7 7 7 8 8 8 8 8 8 9 10
12 13 13 13 12 12 11 10 9 8 7 6 5 4 4 4 3 2 2 1 0 1 2 3 3 3 4 4 5 5 7 8 8 9 9 9 10 10 10 10 10 10 11
12 12 12 12 12 12 12 11 10 9 8 7 6 5 5 4 3 1 0 1 1 1 2 3 4 4 4 5 5 6 7 7 8 9 10 11 11 11 11 12 12 12 13
11 11 11 11 12 12 12 11 11 10 9 9 8 7 6 5 4 3 2 1 2 2 2 3 3 4 5 6 6 7 7 8 8 9 10 11 12 12 13 13 14 14 14
11 11 11 11 11 12 11 11 10 10 10 10 9 8 7 6 5 4 3 3 3 3 3 3 4 4 5 5 6 7 7 8 9 10 11 11 12 13 13 14 15 15 15
10 10 10 11 11 11 11 11 10 10 9 9 9 9 9 8 6 5 4 3 3 3 4 4 4 5 5 6 7 8 8 9 10 11 12 13 14 14 14 14 15 15 16
9 9 10 10 10 11 11 10 11 10 10 10 9 9 9 8 7 6 5 5 4 4 4 5 5 6 6 7 8 8 9 10 11 12 13 14 14 15 16 16 17 17 17
8 8 9 9 9 9 10 10 10 10 10 10 10 9 9 8 8 7 7 5 5 5 5 6 6 7 7 8 9 9 10 10 11 12 13 14 15 16 17 17 17 17 17
7 8 8 8 8 8 8 9 9 9 9 9 10 10 10 9 8 8 7 6 6 6 6 7 7 8 8 9 10 10 10 11 12 13 13 14 15 15 16 16 16 17 17
Wind_Direction
64 70 74 78 78 78 74 71 76 80 87 86 88 94 99 103 106 108 113 112 115 116 115 115 114 115 113 112 113 114 114 117 115 114 115 119 122 120 121 123 123 123 123
66 69 72 75 78 79 77 76 75 80 86 92 92 96 99 100 102 104 110 113 117 118 120 119 115 115 113 111 113 113 113 113 113 109 109 111 116 118 121 124 124 122 118
67 72 74 73 78 81 80 79 81 84 89 89 92 95 93 94 100 104 112 111 117 116 121 120 115 116 114 114 114 113 113 114 114 108 105 107 110 114 116 117 118 119 116
69 74 77 75 75 79 81 79 81 84 89 91 93 96 95 93 95 102 108 111 119 120 117 116 118 117 116 116 115 112 112 113 110 108 106 107 108 109 111 112 113 115 114
71 76 78 76 74 76 78 79 79 81 85 89 94 94 96 96 97 101 105 108 113 112 111 111 116 119 118 117 116 112 110 109 104 106 105 105 106 107 109 108 108 109 109
73 76 79 78 75 76 77 79 79 80 83 87 90 93 96 100 99 102 107 108 107 107 110 113 116 119 116 117 116 111 110 108 104 105 105 106 106 105 104 103 105 104 106
73 77 79 80 77 76 77 77 78 78 81 84 88 91 95 98 102 101 106 107 109 108 111 117 115 118 115 117 114 110 109 107 105 106 106 106 105 104 100 99 98 100 104
70 73 77 81 80 79 79 80 80 79 80 84 85 88 90 95 107 105 105 110 113 114 117 120 115 118 114 115 113 111 112 112 110 111 109 108 106 102 97 94 95 98 100
67 69 72 75 77 80 80 81 81 80 80 88 91 89 93 97 104 103 104 107 111 114 116 122 122 121 116 112 111 113 115 114 112 113 111 108 106 102 99 97 93 94 98
67 67 67 69 74 78 77 78 79 82 85 87 91 90 96 100 102 104 105 108 111 113 113 120 130 126 122 117 114 115 117 119 115 112 111 109 105 97 95 93 89 90 93
65 66 66 66 72 75 74 76 75 81 87 87 87 88 91 96 98 101 104 108 114 115 117 121 127 130 129 126 123 122 122 123 120 112 109 112 106 96 90 88 83 83 81
64 64 64 65 67 72 72 71 72 74 76 80 85 90 94 96 99 100 101 104 110 117 119 120 127 132 136 142 144 143 137 136 130 121 119 119 112 97 82 72 45 27 10
63 63 63 64 66 71 71 69 69 70 71 75 84 88 91 96 102 104 106 112 114 124 129 127 130 138 151 159 161 164 165 158 145 142 147 162 148 121 63 13 337 336 305
62 62 62 64 65 68 66 64 63 64 67 70 78 82 87 92 100 105 112 118 122 133 141 143 143 140 155 170 180 184 189 191 187 200 218 240 250 258 268 297 299 291 284
57 60 62 63 63 62 60 59 58 60 64 66 71 71 79 90 96 100 110 124 135 147 153 152 156 166 182 199 219 221 221 226 232 245 257 268 267 268 269 276 280 277 276
57 58 61 62 61 59 56 54 53 55 59 65 69 69 69 74 85 88 89 114 128 143 166 167 175 210 234 236 242 246 248 252 252 258 265 271 274 276 277 279 275 273 272
56 58 58 58 58 55 53 53 51 53 56 59 65 67 61 59 72 81 85 104 117 137 162 173 197 248 270 266 258 259 259 260 259 259 265 271 275 278 278 277 277 275 274
52 53 55 55 52 49 49 48 47 49 56 58 57 61 56 47 45 62 76 109 148 194 226 245 252 274 285 279 271 267 266 264 264 262 264 269 272 274 278 278 278 277 277
50 51 50 50 50 50 48 46 46 46 48 47 44 44 44 47 49 74 72 77 133 240 257 266 272 278 285 285 278 276 272 268 265 265 265 268 271 272 275 277 277 278 278
49 50 49 49 48 48 47 48 47 48 46 41 38 35 34 38 43 37 21 32 1 319 291 283 279 281 288 292 285 280 278 275 271 270 268 270 272 273 274 276 277 277 277
45 47 49 47 47 45 45 46 46 47 46 43 39 33 31 31 27 12 352 29 7 346 325 317 308 298 292 290 290 284 283 280 279 277 274 273 275 277 278 278 278 277 277
42 45 46 46 45 44 46 47 46 47 46 42 40 36 34 30 23 20 31 28 21 14 356 336 324 313 305 298 293 293 289 283 280 281 281 277 276 279 279 280 278 277 277
38 41 41 41 42 42 44 45 44 41 36 36 38 37 32 32 33 35 25 22 12 354 348 334 322 317 314 309 303 296 296 292 288 284 281 280 278 279 280 283 283 279 278
34 34 33 35 36 37 39 40 42 38 35 35 36 35 34 32 31 30 18 14 10 357 345 336 328 321 318 314 310 306 301 295 289 287 286 283 279 281 281 284 284 281 281
28 29 29 29 31 31 31 33 36 34 31 31 33 33 32 30 30 29 24 17 6 356 348 338 331 322 316 313 311 307 304 299 295 294 294 291 286 285 283 283 284 285 285
24 26 27 26 26 26 26 27 28 26 26 28 29 30 30 27 24 22 21 12 2 354 346 341 337 331 324 317 311 306 303 302 300 300 299 296 293 293 291 287 283 286 287
Height
5867 5865 5865 5864 5863 5863 5862 5862 5862 5862 5862 5863 5863 5864 5864 5865 5865 5866 5867 5868 5869 5870 5871 5873 5873 5874 5875 5876 5877 5878 5878 5879 5880 5880 5880 5881 5881 5882 5883 5883 5884 5885 5885
5868 5867 5866 5865 5864 5864 5864 5863 5863 5864 5864 5864 5865 5865 5866 5866 5867 5868 5868 5869 5870 5872 5873 5874 5874 5875 5876 5877 5878 5879 5880 5881 5882 5882 5882 5882 5883 5883 5884 5885 5885 5886 5887
5869 5868 5867 5867 5866 5866 5865 5865 5865 5865 5865 5866 5867 5867 5868 5868 5869 5869 5869 5871 5872 5873 5874 5875 5876 5877 5878 5879 5880 5881 5882 5883 5883 5883 5884 5884 5885 5885 5886 5886 5887 5888 5888
5871 5870 5869 5868 5868 5867 5867 5867 5867 5867 5867 5868 5868 5869 5869 5870 5871 5871 5872 5873 5873 5875 5876 5877 5878 5879 5880 5881 5882 5882 5883 5884 5884 5885 5885 5886 5886 5887 5888 5888 5889 5889 5889
5873 5871 5871 5870 5870 5869 5869 5869 5869 5869 5869 5869 5870 5870 5871 5872 5872 5873 5873 5874 5875 5876 5877 5878 5879 5881 5881 5882 5883 5884 5885 5885 5886 5887 5887 5888 5888 5889 5889 5890 5890 5890 5891
5874 5873 5872 5872 5871 5871 5871 5871 5871 5871 5871 5871 5872 5872 5873 5873 5874 5874 5875 5876 5877 5878 5879 5880 5881 5882 5883 5884 5885 5885 5886 5887 5888 5888 5889 5889 5890 5891 5891 5891 5891 5892 5892
5876 5875 5874 5874 5873 5873 5872 5872 5872 5872 5873 5873 5873 5874 5874 5875 5875 5876 5877 5878 5878 5879 5881 5882 5883 5884 5884 5885 5886 5887 5888 5889 5889 5890 5891 5891 5891 5892 5892 5893 5893 5893 5893
5877 5876 5875 5875 5875 5875 5874 5874 5874 5874 5874 5875 5875 5876 5876 5877 5877 5878 5879 5879 5880 5881 5882 5883 5884 5885 5886 5887 5887 5888 5889 5890 5891 5891 5892 5892 5893 5893 5893 5894 5894 5894 5895
5879 5878 5877 5877 5876 5876 5876 5876 5876 5876 5876 5876 5877 5877 5878 5878 5879 5879 5880 5881 5882 5882 5883 5884 5885 5886 5887 5888 5889 5890 5891 5891 5892 5892 5893 5893 5894 5894 5895 5895 5895 5895 5896
5881 5880 5879 5878 5878 5878 5878 5877 5877 5877 5878 5878 5878 5878 5879 5880 5880 5881 5882 5882 5883 5884 5885 5885 5887 5887 5888 5889 5890 5891 5892 5892 5893 5894 5894 5894 5895 5895 5895 5896 5896 5896 5896
5883 5882 5881 5880 5880 5880 5880 5879 5879 5879 5879 5879 5880 5880 5880 5881 5882 5882 5883 5883 5884 5885 5886 5887 5887 5888 5889 5890 5891 5892 5893 5893 5894 5894 5895 5895 5896 5896 5896 5896 5897 5897 5897
5885 5884 5883 5882 5882 5881 5881 5881 5881 5881 5881 5881 5881 5882 5882 5882 5883 5883 5884 5885 5885 5886 5887 5888 5889 5889 5890 5891 5892 5893 5893 5894 5895 5895 5895 5896 5896 5896 5896 5897 5897 5897 5897
5888 5886 5885 5885 5884 5884 5883 5883 5883 5882 5882 5882 5883 5883 5883 5884 5884 5885 5885 5886 5886 5887 5887 5888 5889 5890 5891 5892 5893 5893 5894 5894 5895 5895 5896 5896 5896 5896 5896 5897 5897 5897 5897
5890 5889 5888 5887 5886 5886 5885 5885 5884 5884 5884 5884 5884 5884 5884 5885 5885 5885 5886 5886 5887 5887 5888 5889 5889 5890 5891 5892 5893 5893 5894 5894 5895 5895 5896 5896 5896 5896 5896 5896 5896 5896 5896
5892 5891 5890 5890 5889 5888 5887 5887 5886 5886 5885 5885 5885 5885 5885 5886 5886 5886 5886 5887 5887 5888 5888 5889 5890 5890 5891 5892 5892 5893 5894 5894 5894 5895 5895 5895 5895 5896 5895 5896 5895 5895 5895
5895 5894 5893 5892 5891 5890 5889 5888 5887 5887 5887 5886 5886 5886 5886 5886 5886 5886 5886 5887 5887 5888 5888 5889 5889 5890 5891 5891 5892 5892 5893 5894 5894 5894 5894 5894 5894 5894 5895 5895 5894 5894 5894
5898 5896 5895 5894 5893 5892 5891 5890 5889 5888 5888 5887 5887 5887 5886 5886 5886 5886 5887 5887 5888 5888 5888 5889 5889 5890 5890 5890 5891 5891 5892 5892 5893 5893 5893 5893 5893 5893 5893 5893 5893 5893 5893
5900 5898 5897 5896 5894 5893 5892 5891 5890 5889 5889 5888 5888 5887 5887 5887 5887 5886 5887 5887 5887 5888 5888 5889 5889 5889 5889 5889 5890 5890 5891 5891 5891 5891 5892 5892 5892 5892 5892 5892 5892 5892 5891
5902 5900 5899 5897 5896 5895 5894 5893 5892 5890 5890 5889 5888 5888 5887 5887 5887 5887 5887 5887 5887 5888 5888 5888 5888 5889 5889 5889 5888 5889 5889 5889 5890 5890 5890 5890 5890 5890 5890 5890 5890 5889 5889
5903 5902 5901 5900 5898 5897 5895 5894 5893 5892 5891 5890 5889 5888 5888 5887 5887 5887 5887 5887 5887 5887 5887 5888 5888 5888 5888 5888 5888 5888 5887 5887 5888 5888 5888 5888 5888 5888 5888 5888 5887 5887 5887
5905 5904 5903 5901 5900 5898 5897 5896 5895 5894 5893 5891 5890 5889 5888 5888 5887 5887 5887 5887 5887 5887 5887 5887 5887 5887 5887 5886 5886 5886 5886 5886 5886 5886 5886 5886 5886 5885 5885 5885 5884 5884 5884
5906 5905 5904 5903 5901 5900 5898 5897 5896 5895 5894 5893 5891 5890 5889 5888 5888 5888 5887 5887 5887 5887 5887 5887 5886 5886 5886 5885 5885 5885 5884 5885 5884 5884 5883 5883 5883 5882 5882 5882 5881 5881 5880
5908 5907 5905 5904 5903 5901 5900 5899 5898 5896 5895 5894 5893 5892 5890 5889 5888 5888 5888 5887 5887 5887 5887 5886 5886 5885 5885 5884 5884 5883 5883 5883 5882 5882 5881 5880 5880 5879 5879 5878 5878 5877 5877
5909 5908 5906 5905 5904 5902 5901 5900 5899 5898 5896 5895 5894 5893 5891 5890 5889 5889 5888 5888 5888 5887 5887 5886 5885 5884 5884 5883 5882 5882 5881 5881 5880 5879 5878 5877 5876 5876 5876 5875 5874 5874 5873
5910 5908 5907 5906 5905 5904 5902 5901 5900 5899 5897 5896 5895 5893 5892 5891 5890 5889 5889 5888 5888 5887 5886 5886 5884 5883 5883 5882 5881 5880 5879 5878 5877 5877 5876 5874 5873 5872 5872 5871 5870 5870 5869
5910 5909 5908 5907 5906 5904 5903 5902 5901 5900 5898 5897 5896 5894 5893 5892 5891 5890 5889 5888 5888 5887 5886 5885 5883 5882 5881 5880 5879 5878 5877 5876 5875 5874 5872 5871 5870 5869 5868 5867 5866 5866 5865